Track STARLINK-4188 now! 10-day predictions STARLINK-4188 is classified as:
1 52843U 22062P 22224.83335648 -.01132191 00000-0 -61536-1 0 9998 2 52843 53.2177 131.9048 0001672 53.2811 127.1172 15.16895141 9293